Bemidji, MN

6:33 PM CDT on March 29, 2017 (GMT -0500)
Bemidji-Beltrami County

Weather History for KBJI - October, 2013

Change the Weather History Date:

Tuesday, October 8, 2013

  Actual Average Record
Temperature  
Mean Temperature 56 °F -  
Max Temperature 75 °F 54 °F 80 °F (2003)
Min Temperature 38 °F 36 °F 19 °F (2000)
Degree Days  
Heating Degree Days 8    
Growing Degree Days 6 (Base 50)    
Moisture  
Dew Point 43 °F    
Average Humidity 65    
Maximum Humidity 89    
Minimum Humidity 36    
Precipitation  
Precipitation 0.00 in - - ()
Sea Level Pressure  
Sea Level Pressure 29.72 in    
Wind  
Wind Speed 6 mph (South)    
Max Wind Speed 18 mph    
Max Gust Speed 26 mph    
Visibility 10 miles    
Events      
Averages and records for this station are not official NWS values.
T = Trace of Precipitation, MM = Missing Value Source: NWS Daily Summary

Daily Weather History Graph

Daily Weather History Graph

Search for Another Location

Airport or City:

Trip Planner

Search our weather history database for the weather conditions in past years. The results will help you decide how hot, cold, wet, or windy it might be!

Date:

Astronomy

Oct. 08, 2013 Rise Set
Actual Time 7:28 AM CDT 6:44 PM CDT
Civil Twilight 6:58 AM CDT 7:15 PM CDT
Nautical Twilight 6:22 AM CDT 7:50 PM CDT
Astronomical Twilight 5:46 AM CDT 8:26 PM CDT
Moon 11:39 AM CDT (10/8) 9:05 PM CDT (10/8)
Length of Visible Light 12h 17m
Length of Day
11h 15m
Waxing Crescent, 16% of the Moon is Illuminated
Oct 8
Waxing Crescent
Oct 11
First Quarter
Oct 18
Full
Oct 26
Last Quarter
Nov 3
New

Hourly Weather History & Observations

Time (CDT) Temp. Windchill Dew Point Humidity Pressure Visibility Wind Dir Wind Speed Gust Speed Precip Events Conditions
12:13 AM 41.7 °F 39.8 °F 37.2 °F 84% 29.86 in 10.0 mi SE 3.5 mph - N/A   Clear
12:32 AM 41.9 °F 40.0 °F 37.4 °F 84% 29.86 in 10.0 mi SE 3.5 mph - N/A   Clear
12:53 AM 41.5 °F 39.6 °F 37.4 °F 85% 29.85 in 10.0 mi SE 3.5 mph - N/A   Clear
1:12 AM 41.0 °F 38.0 °F 37.4 °F 87% 29.85 in 10.0 mi SE 4.6 mph - N/A   Clear
1:32 AM 41.4 °F - 37.4 °F 86% 29.84 in 10.0 mi Calm Calm - N/A   Clear
1:53 AM 42.3 °F - 37.6 °F 83% 29.84 in 10.0 mi Calm Calm - N/A   Clear
2:13 AM 43.2 °F - 37.6 °F 81% 29.84 in 10.0 mi Calm Calm - N/A   Clear
2:32 AM 42.1 °F - 37.2 °F 83% 29.83 in 10.0 mi Calm Calm - N/A   Clear
2:53 AM 40.6 °F - 36.9 °F 86% 29.82 in 10.0 mi Calm Calm - N/A   Clear
3:13 AM 39.6 °F - 36.1 °F 88% 29.81 in 10.0 mi Calm Calm - N/A   Clear
3:32 AM 41.5 °F - 37.0 °F 84% 29.81 in 10.0 mi Calm Calm - N/A   Clear
3:52 AM 41.0 °F - 37.4 °F 87% 29.80 in 10.0 mi Calm Calm - N/A   Clear
4:13 AM 41.0 °F - 37.4 °F 87% 29.79 in 10.0 mi Calm Calm - N/A   Clear
4:32 AM 41.0 °F - 37.4 °F 87% 29.79 in 10.0 mi Calm Calm - N/A   Clear
4:52 AM 38.1 °F 35.7 °F 35.1 °F 89% 29.79 in 10.0 mi East 3.5 mph - N/A   Clear
5:13 AM 41.2 °F 36.0 °F 37.2 °F 86% 29.78 in 10.0 mi SE 8.1 mph - N/A   Clear
5:32 AM 44.8 °F 40.4 °F 40.1 °F 84% 29.78 in 10.0 mi SE 8.1 mph - N/A   Clear
5:52 AM 44.6 °F 40.2 °F 40.1 °F 84% 29.77 in 10.0 mi ESE 8.1 mph - N/A   Clear
6:13 AM 45.0 °F 40.1 °F 40.5 °F 84% 29.76 in 10.0 mi SE 9.2 mph - N/A   Clear
6:32 AM 44.6 °F 39.7 °F 40.6 °F 86% 29.75 in 10.0 mi SE 9.2 mph - N/A   Clear
6:52 AM 45.5 °F 40.8 °F 41.0 °F 84% 29.74 in 10.0 mi SE 9.2 mph - N/A   Clear
7:13 AM 45.5 °F 40.3 °F 41.0 °F 84% 29.73 in 10.0 mi SE 10.4 mph - N/A   Clear
7:32 AM 46.4 °F 41.1 °F 41.7 °F 84% 29.72 in 10.0 mi ESE 11.5 mph - N/A   Clear
7:52 AM 47.5 °F - 42.3 °F 82% 29.71 in 10.0 mi SE 10.4 mph - N/A   Clear
8:13 AM 48.0 °F - 42.8 °F 82% 29.71 in 10.0 mi SE 11.5 mph - N/A   Clear
8:32 AM 48.7 °F - 42.8 °F 80% 29.71 in 10.0 mi SE 10.4 mph - N/A   Clear
8:53 AM 50.4 °F - 43.2 °F 76% 29.69 in 10.0 mi SSE 13.8 mph - N/A   Clear
9:12 AM 51.1 °F - 43.0 °F 74% 29.68 in 10.0 mi SSE 12.7 mph - N/A   Clear
9:32 AM 52.7 °F - 43.5 °F 71% 29.68 in 10.0 mi SSE 11.5 mph - N/A   Clear
9:53 AM 54.5 °F - 43.3 °F 66% 29.68 in 10.0 mi SSE 12.7 mph 18.4 mph N/A   Clear
10:13 AM 56.3 °F - 43.7 °F 63% 29.68 in 10.0 mi South 15.0 mph 21.9 mph N/A   Clear
10:32 AM 57.2 °F - 44.1 °F 62% 29.67 in 10.0 mi South 10.4 mph 18.4 mph N/A   Clear
10:53 AM 59.4 °F - 44.8 °F 58% 29.66 in 10.0 mi SSE 13.8 mph 18.4 mph N/A   Clear
11:13 AM 60.6 °F - 44.8 °F 56% 29.66 in 10.0 mi South 12.7 mph 17.3 mph N/A   Clear
11:32 AM 61.2 °F - 44.8 °F 55% 29.66 in 10.0 mi South 11.5 mph 21.9 mph N/A   Clear
11:52 AM 64.0 °F - 45.9 °F 52% 29.66 in 10.0 mi South 16.1 mph 20.7 mph N/A   Clear
12:13 PM 64.4 °F - 45.1 °F 50% 29.66 in 10.0 mi South 16.1 mph 21.9 mph N/A   Clear
12:32 PM 65.5 °F - 45.7 °F 49% 29.65 in 10.0 mi South 18.4 mph 21.9 mph N/A   Clear
12:52 PM 67.5 °F - 46.8 °F 47% 29.64 in 7.0 mi South 18.4 mph 21.9 mph N/A   Clear
1:12 PM 68.7 °F - 46.8 °F 45% 29.64 in 10.0 mi South 9.2 mph 20.7 mph N/A   Clear
1:32 PM 70.3 °F - 46.9 °F 43% 29.64 in 10.0 mi South 10.4 mph 20.7 mph N/A   Clear
1:53 PM 71.6 °F - 47.3 °F 42% 29.63 in 10.0 mi South 13.8 mph 19.6 mph N/A   Clear
2:13 PM 72.5 °F - 47.3 °F 41% 29.62 in 10.0 mi SSW 15.0 mph 23.0 mph N/A   Clear
2:32 PM 73.4 °F - 48.0 °F 41% 29.62 in 10.0 mi South 12.7 mph 18.4 mph N/A   Clear
2:52 PM 75.2 °F - 46.6 °F 36% 29.63 in 10.0 mi South 15.0 mph 23.0 mph N/A   Clear
3:13 PM 73.2 °F - 46.6 °F 39% 29.63 in 10.0 mi South 8.1 mph - N/A   Clear
3:32 PM 73.8 °F - 46.9 °F 38% 29.63 in 10.0 mi South 10.4 mph 19.6 mph N/A   Clear
3:52 PM 74.5 °F - 48.0 °F 39% 29.63 in 10.0 mi SSW 9.2 mph - N/A   Clear
4:13 PM 73.6 °F - 44.8 °F 36% 29.64 in 10.0 mi SSW 12.7 mph 17.3 mph N/A   Clear
4:32 PM 73.0 °F - 45.0 °F 37% 29.65 in 7.0 mi SSW 11.5 mph - N/A   Clear
4:52 PM 72.7 °F - 44.8 °F 37% 29.65 in 7.0 mi SSW 11.5 mph 25.3 mph N/A   Clear
5:13 PM 72.5 °F - 44.8 °F 37% 29.66 in 7.0 mi SSW 11.5 mph 21.9 mph N/A   Clear
5:32 PM 72.5 °F - 43.7 °F 36% 29.66 in 10.0 mi SSW 16.1 mph 26.5 mph N/A   Clear
5:52 PM 70.5 °F - 44.2 °F 39% 29.68 in 7.0 mi SSW 10.4 mph 19.6 mph N/A   Clear
6:13 PM 68.9 °F - 44.8 °F 42% 29.68 in 10.0 mi SSW 8.1 mph - N/A   Clear
6:32 PM 68.0 °F - 45.1 °F 44% 29.69 in 10.0 mi SW 3.5 mph - N/A   Clear
6:52 PM 66.6 °F - 45.5 °F 47% 29.69 in 7.0 mi SSW 4.6 mph - N/A   Clear
7:13 PM 65.8 °F - 45.1 °F 47% 29.70 in 7.0 mi SSW 3.5 mph - N/A   Clear
7:32 PM 64.4 °F - 45.3 °F 50% 29.71 in 10.0 mi SSW 3.5 mph - N/A   Clear
7:52 PM 62.4 °F - 45.5 °F 54% 29.71 in 10.0 mi South 3.5 mph - N/A   Clear
8:13 PM 59.2 °F - 45.9 °F 61% 29.72 in 10.0 mi South 3.5 mph - N/A   Clear
8:32 PM 59.4 °F - 46.2 °F 62% 29.72 in 10.0 mi South 3.5 mph - N/A   Clear
8:52 PM 59.4 °F - 46.0 °F 61% 29.73 in 10.0 mi SSE 4.6 mph - N/A   Clear
9:13 PM 57.0 °F - 46.4 °F 68% 29.73 in 10.0 mi SSE 8.1 mph - N/A   Clear
9:32 PM 56.7 °F - 46.6 °F 69% 29.74 in 10.0 mi SSE 6.9 mph - N/A   Clear
9:52 PM 55.8 °F - 46.4 °F 71% 29.74 in 10.0 mi SSE 6.9 mph - N/A   Clear
10:13 PM 55.4 °F - 46.0 °F 71% 29.75 in 10.0 mi SSE 6.9 mph - N/A   Clear
10:32 PM 56.5 °F - 46.2 °F 68% 29.75 in 10.0 mi SSE 4.6 mph - N/A   Clear
10:52 PM 54.7 °F - 46.0 °F 73% 29.76 in 10.0 mi South 4.6 mph - N/A   Clear
11:13 PM 53.2 °F - 45.1 °F 74% 29.76 in 10.0 mi South 3.5 mph - N/A   Clear
11:32 PM 56.5 °F - 46.0 °F 68% 29.77 in 10.0 mi South 5.8 mph - N/A   Clear
11:52 PM 56.5 °F - 45.9 °F 68% 29.78 in 10.0 mi South 4.6 mph - N/A   Clear